Wind_Speed
25 24 23 21 20 19 18 18 17 15 14 13 12 11 9 9 9 9 9 9 9 9 9 10 11 12 13 15 17 19 20 21 22 24 25 26 26 27 27 28 29 29 30 30 32 33 33 33 33 31 29 26 23 20 16 10 5 4 7 8 8 8 7 7 8 9 10 12 11 10 9 8 8 7 5 3 3 3 4 5 8 10 11 11 12 14 15 17
28 27 26 24 23 22 21 20 19 18 17 16 15 14 12 11 10 10 10 10 10 10 10 10 10 11 11 13 15 16 18 19 21 22 23 24 25 25 26 26 27 28 28 29 30 31 32 33 33 32 31 29 26 23 18 12 8 3 5 8 9 9 8 7 7 7 9 10 10 9 8 9 9 8 7 6 4 3 1 1 4 6 7 7 7 8 9 11
31 30 29 28 26 25 24 23 22 21 20 19 18 17 15 14 12 12 12 11 11 11 11 10 10 10 10 11 12 14 15 17 19 20 21 22 23 24 24 25 26 26 27 28 29 30 31 32 32 32 32 32 29 25 21 16 11 6 1 7 9 9 8 7 6 7 8 9 9 9 9 9 8 7 7 6 4 3 2 2 3 4 5 5 4 4 5 7
34 33 32 31 30 28 27 26 25 24 23 22 21 19 18 17 16 14 13 13 13 12 12 11 11 11 10 10 11 11 13 15 17 18 19 20 22 22 23 23 24 25 26 26 27 28 29 30 31 32 32 33 32 28 26 22 15 9 3 4 8 9 8 8 7 7 8 9 9 10 9 9 8 7 7 6 4 3 3 3 4 4 5 5 5 3 3 4
37 36 35 34 33 32 30 29 28 27 26 25 24 22 21 20 19 18 16 15 14 14 14 13 12 12 11 10 10 10 11 12 14 16 17 18 20 21 22 22 22 23 23 25 26 27 28 29 30 31 32 34 34 30 29 27 20 13 6 1 7 9 9 8 7 6 7 9 9 9 9 9 8 7 7 5 4 3 3 4 4 4 5 5 5 3 2 3
37 37 37 37 36 35 34 33 31 30 29 28 26 25 24 22 21 21 19 18 16 16 16 15 14 13 13 12 11 10 10 11 12 14 16 17 18 19 20 21 21 21 22 23 24 25 26 28 29 30 31 32 34 32 30 28 23 18 11 6 4 7 8 7 6 6 7 9 9 10 10 9 9 9 8 6 4 3 2 3 3 3 4 4 4 3 2 3
37 37 37 37 37 37 37 36 34 33 32 31 29 28 27 25 24 23 22 21 19 18 18 18 17 15 14 13 12 11 11 10 11 12 13 15 16 17 18 19 20 20 20 21 22 23 25 26 27 28 29 30 32 33 30 26 24 21 17 12 7 6 8 8 7 7 8 9 10 10 10 10 10 9 8 6 5 4 2 2 2 2 3 3 3 3 2 3
38 37 37 37 37 37 37 37 37 36 35 33 32 31 30 28 27 25 25 24 22 21 20 20 20 18 17 15 14 13 12 11 10 10 11 13 15 15 16 17 19 19 19 19 20 21 22 24 25 26 27 28 30 32 31 26 23 22 20 17 12 7 8 9 9 9 9 10 11 11 11 11 10 8 6 6 4 4 3 2 2 2 1 1 2 1 1 1
40 39 38 37 37 37 37 37 38 37 37 36 34 33 33 31 30 28 27 26 25 24 23 22 22 21 20 18 16 14 14 13 11 10 11 12 13 14 14 15 17 18 18 18 18 19 20 21 22 23 24 26 28 30 30 27 23 22 22 20 17 11 8 8 10 10 10 11 11 12 12 12 11 9 8 6 5 3 3 2 1 0 1 1 0 0 1 2
44 42 41 40 39 38 37 37 37 38 37 37 36 35 34 34 33 31 30 29 28 27 25 24 24 24 22 21 18 16 16 15 13 12 12 11 12 13 13 13 15 16 17 18 17 18 18 19 20 21 21 23 26 28 28 26 24 23 23 22 20 16 11 8 9 10 11 11 12 13 12 12 11 10 8 6 5 4 4 3 2 2 2 2 2 2 2 2
49 47 45 44 42 41 40 39 38 38 38 38 37 37 36 35 34 34 33 31 31 30 28 27 27 26 25 24 20 19 18 16 15 14 13 12 11 12 12 12 13 14 15 16 17 16 17 17 18 19 19 20 23 26 24 23 24 25 24 24 23 20 16 12 10 9 11 11 11 12 11 10 9 9 7 6 4 4 4 4 4 4 4 4 5 5 6 6
53 52 50 48 47 45 43 42 41 40 39 38 38 38 37 36 35 35 35 34 33 32 31 31 30 29 28 26 24 22 20 18 17 17 15 13 12 12 13 12 12 12 13 14 15 16 16 16 16 17 18 18 21 23 21 20 23 24 24 24 24 23 20 18 15 12 11 10 10 10 9 8 8 8 7 6 6 6 6 5 6 7 7 8 9 10 10 10
57 56 55 53 51 49 47 45 44 43 42 41 40 39 38 37 36 35 35 35 35 34 34 33 33 33 31 29 27 24 22 21 20 19 17 15 14 14 13 13 12 11 12 12 13 14 15 15 14 15 15 17 18 19 18 18 20 22 23 24 24 24 22 20 19 17 15 12 10 9 8 7 7 7 7 7 9 10 9 9 9 8 8 9 10 12 11 10
61 60 59 58 56 54 52 50 48 47 46 45 43 41 40 39 37 36 36 35 35 36 36 36 36 36 34 32 30 27 26 25 22 21 20 18 16 16 15 13 12 11 11 11 11 12 13 13 13 13 13 15 15 16 16 16 17 19 21 22 22 23 23 21 19 18 17 16 15 13 11 9 8 7 7 7 9 10 10 10 9 8 8 8 9 10 10 9
64 63 62 61 60 59 57 55 53 51 49 48 47 45 43 41 39 38 37 36 36 36 37 38 39 39 37 35 33 30 29 27 24 23 22 21 19 18 17 15 13 13 12 11 11 10 11 12 12 12 12 12 13 13 13 14 15 16 18 19 20 21 22 22 20 18 17 16 15 14 13 11 10 8 7 8 8 9 9 9 8 8 8 8 8 9 9 9
68 67 66 65 64 63 61 60 58 56 54 52 50 49 47 44 42 41 39 37 37 37 38 40 40 41 40 38 35 33 32 30 27 26 25 24 22 21 20 17 15 14 13 12 11 10 10 10 11 11 11 10 10 11 11 12 13 14 15 16 17 18 19 20 20 19 18 17 17 16 14 13 12 11 11 11 11 10 11 11 12 11 11 11 10 10 11 11
71 70 69 68 67 65 64 63 62 61 59 56 54 52 50 48 45 44 43 40 39 38 39 40 41 42 41 39 37 35 35 33 31 30 28 26 25 24 23 20 18 16 15 14 12 11 10 9 9 10 10 9 9 9 9 10 11 12 12 13 14 15 15 17 18 18 19 19 18 17 16 15 15 15 15 14 13 13 13 14 14 14 14 13 12 12 13 12
74 73 72 71 70 68 67 66 65 64 62 61 59 56 53 51 48 47 46 45 43 41 40 41 41 43 42 40 39 38 38 37 35 33 31 29 28 27 25 23 21 19 18 17 15 13 12 10 9 9 9 9 8 8 8 8 9 10 10 10 11 12 13 14 14 15 15 16 17 16 16 16 16 16 15 14 14 14 14 14 14 14 14 13 13 13 13 11
76 76 76 75 74 72 70 69 69 68 66 64 62 60 57 54 52 50 49 48 47 44 43 42 43 43 42 41 41 40 40 40 38 36 33 32 31 30 28 25 24 21 20 19 17 16 15 13 10 9 9 8 8 7 7 7 7 7 8 8 8 9 10 11 12 12 12 12 13 13 13 13 14 14 13 13 12 12 11 12 12 12 11 11 12 12 12 11
77 78 78 77 77 76 75 73 72 71 69 66 65 64 60 58 56 53 52 52 51 49 47 46 46 45 44 42 42 42 42 42 41 38 35 34 34 33 30 28 27 25 24 22 20 18 17 16 13 11 10 9 8 8 6 6 6 5 6 7 7 6 7 8 9 10 10 9 10 11 12 11 11 11 11 10 9 9 9 9 10 10 9 10 10 10 10 10
79 79 78 78 78 78 77 77 77 76 73 70 68 66 64 62 61 57 56 56 56 53 51 50 50 49 46 45 44 44 43 43 43 40 37 37 36 35 34 32 31 29 27 25 22 22 21 18 16 14 13 11 10 9 7 6 6 5 4 4 5 6 5 5 6 7 8 8 7 9 10 10 10 10 10 10 9 9 9 9 9 9 9 10 11 10 10 9
80 80 80 79 79 79 78 78 79 79 77 74 71 69 68 68 65 61 60 61 59 56 54 53 53 52 49 48 47 45 44 44 44 42 39 38 38 38 38 36 34 33 30 26 25 25 24 21 19 18 16 14 12 11 9 8 7 6 6 5 4 4 5 4 3 4 6 7 6 6 7 8 8 9 9 9 9 9 9 9 8 8 9 9 10 10 10 8
81 81 81 80 80 79 79 79 80 80 79 78 75 73 73 72 69 65 63 64 62 59 57 57 56 53 51 51 51 48 46 46 46 44 41 39 40 40 40 38 36 34 32 29 29 29 27 23 22 21 19 17 15 14 12 10 8 7 7 7 5 4 4 5 4 3 3 4 4 5 5 4 4 5 6 5 6 7 8 8 7 7 8 8 9 9 10 8
82 82 82 81 81 81 80 80 80 81 80 78 77 77 77 75 72 69 67 67 66 63 61 60 59 57 56 55 54 51 49 49 47 46 43 41 42 42 41 41 38 35 34 33 32 31 29 26 24 24 22 20 18 17 15 13 11 9 9 8 8 7 5 5 5 5 3 2 1 2 3 2 2 3 4 4 4 4 5 6 6 6 7 7 8 8 9 8
82 83 83 82 82 82 81 81 81 81 80 78 78 78 78 76 74 72 70 69 71 69 64 63 63 62 61 58 56 54 53 52 51 49 46 43 43 43 43 42 39 38 37 36 35 34 32 29 27 27 25 23 22 20 18 17 14 13 11 10 9 9 8 6 5 6 6 6 4 2 2 0 1 1 2 3 4 4 3 4 4 5 6 6 6 7 8 9
80 82 83 83 83 83 82 81 81 82 81 79 79 79 77 76 75 74 73 71 73 72 67 66 67 65 63 60 59 59 56 55 55 52 49 47 45 45 45 43 41 40 40 39 37 36 35 31 29 30 28 26 25 23 22 20 18 16 15 13 11 10 11 9 7 7 7 8 8 5 3 2 2 2 2 3 5 6 5 5 5 5 5 6 6 7 8 9
74 78 81 83 83 84 83 82 81 82 81 80 81 80 77 76 74 74 74 71 73 74 70 69 70 69 66 64 64 62 59 59 59 56 54 51 49 48 46 44 43 42 41 40 37 38 38 34 32 34 32 30 28 27 25 23 22 20 18 17 15 13 13 12 11 9 8 9 9 8 6 5 5 5 5 5 6 7 8 7 7 7 8 7 7 7 8 9
68 71 75 79 81 84 85 84 81 81 82 81 81 80 78 76 75 74 73 71 72 75 73 72 72 72 70 67 66 64 62 63 62 59 58 55 52 50 47 46 46 46 44 41 39 42 41 36 35 37 35 33 32 30 28 26 26 24 22 20 19 16 15 15 14 13 10 10 10 10 9 8 7 7 7 7 7 8 9 9 9 10 11 10 9 9 9 10
63 66 69 73 76 79 85 85 82 81 82 82 80 80 79 77 76 75 72 72 73 74 74 73 73 74 73 69 67 66 65 64 64 62 61 59 56 52 50 48 48 48 45 42 43 45 42 38 38 38 36 35 35 33 30 30 30 28 25 24 22 20 18 17 16 16 14 12 12 12 12 11 10 9 9 9 8 8 9 10 11 11 11 13 13 13 12 11
58 61 64 68 70 73 80 84 82 82 83 82 80 80 79 77 77 74 72 74 75 74 74 75 74 75 74 71 69 68 67 66 66 65 63 62 59 56 53 52 52 49 46 44 45 46 43 41 39 37 37 38 38 36 33 33 34 32 28 27 25 24 23 20 19 19 17 17 16 14 13 14 14 13 12 10 11 11 10 11 12 13 12 14 15 16 16 14
55 56 59 64 67 69 74 78 79 81 83 83 82 81 79 78 76 73 74 76 76 74 76 77 76 76 75 73 70 70 70 69 68 67 65 65 63 59 57 56 54 51 48 45 45 46 44 41 38 38 40 41 40 38 36 37 38 35 32 31 28 27 27 23 22 21 20 21 20 17 15 15 16 17 15 13 14 14 14 13 13 14 14 16 17 18 18 18
55 54 54 59 64 68 71 72 73 77 81 83 84 82 79 78 74 72 76 78 76 77 79 79 78 77 76 75 73 72 72 71 70 69 68 68 65 61 60 58 56 54 50 46 46 47 44 41 41 41 42 43 43 41 40 41 41 38 36 34 31 31 31 27 25 24 23 24 24 21 18 16 17 20 19 18 17 16 16 16 16 16 16 18 19 20 21 20
55 53 54 56 61 66 68 67 67 72 77 80 83 83 81 77 72 73 78 78 78 81 82 80 80 78 77 76 75 75 75 73 73 71 70 70 67 64 63 61 59 57 53 51 51 50 48 45 45 43 43 45 46 44 43 44 44 42 40 38 35 35 33 29 28 28 27 28 28 25 21 18 20 22 22 22 22 19 18 18 20 20 19 19 20 22 22 22
55 54 55 56 59 63 65 64 63 67 71 75 79 82 82 77 73 76 79 79 82 84 83 82 81 80 78 76 76 75 75 75 75 74 72 72 69 66 64 63 61 59 57 55 55 54 51 49 46 44 45 48 49 47 46 48 47 45 43 40 38 37 34 32 33 33 31 30 30 27 23 23 25 25 24 25 25 23 22 21 23 24 23 23 22 22 22 24
57 55 58 59 59 59 60 60 61 63 67 71 73 77 78 77 77 80 81 83 85 86 85 84 82 80 79 77 76 76 75 76 75 75 74 73 71 68 66 65 63 61 59 57 56 56 53 49 48 48 49 50 52 50 48 50 50 47 44 41 40 39 37 37 38 36 35 33 30 28 28 28 28 27 27 28 27 26 25 26 27 27 27 28 26 24 24 26
59 58 60 61 59 55 53 56 59 61 65 67 67 68 70 74 79 82 85 87 87 86 86 84 81 80 79 78 77 76 77 77 76 76 75 73 72 70 68 66 65 63 61 58 57 58 55 52 52 52 51 52 53 51 50 51 53 50 44 41 43 44 43 41 38 37 37 35 32 32 32 32 30 29 30 30 29 28 28 29 30 29 31 32 31 29 28 29
62 61 62 63 58 52 50 54 56 58 62 63 61 60 62 68 76 83 88 90 89 87 85 82 81 80 79 78 77 77 78 78 77 77 75 73 72 72 69 68 66 65 63 61 61 61 58 56 57 56 54 54 55 54 53 55 55 51 45 44 47 48 46 42 38 37 39 38 37 37 36 35 33 32 32 32 31 30 31 32 32 32 34 35 34 34 34 33
64 64 64 61 57 53 52 53 53 55 57 58 58 58 59 63 71 81 89 92 91 88 84 83 82 81 80 79 79 79 79 79 79 77 76 74 72 72 71 69 68 66 65 64 64 63 61 61 61 59 57 57 58 59 58 57 55 51 47 48 49 48 47 44 41 40 41 41 41 40 39 37 36 35 34 33 33 32 33 33 34 35 37 37 36 36 37 36
65 66 65 60 58 57 54 52 51 51 53 55 57 58 59 62 69 78 87 93 92 88 84 84 83 81 81 81 80 80 80 80 80 78 77 74 72 73 74 71 69 68 68 68 66 64 63 64 64 62 60 61 62 62 59 55 54 52 51 50 48 48 49 48 45 43 43 43 43 43 42 40 39 39 36 35 35 34 34 34 35 37 40 39 38 38 38 38
66 67 65 61 61 59 55 51 50 49 50 52 56 58 59 61 66 74 84 91 92 89 86 85 85 83 82 82 82 81 81 80 80 79 77 75 73 74 75 74 72 71 71 71 69 68 67 66 66 64 64 64 62 59 57 56 56 55 53 51 49 50 52 52 48 46 45 45 45 44 44 42 42 41 39 38 38 37 36 36 37 39 41 41 40 40 39 39
66 67 65 63 63 60 56 53 50 49 48 50 54 57 59 61 63 70 79 86 90 89 88 87 86 84 83 83 83 83 82 82 81 79 78 75 73 73 75 75 74 74 74 73 71 70 69 68 68 67 67 66 60 57 60 61 59 57 55 53 52 52 53 52 50 49 48 48 47 46 45 44 43 43 42 41 40 39 38 39 40 41 42 42 42 42 41 41
67 66 65 64 63 61 58 54 51 49 47 49 54 57 59 61 62 66 74 82 87 89 89 89 87 85 84 84 84 85 85 83 81 80 78 76 73 72 74 76 77 77 76 75 73 72 72 71 71 71 68 65 62 60 63 64 62 59 57 55 54 53 54 53 52 52 53 52 49 47 45 44 43 44 45 43 42 42 42 43 43 43 44 44 44 45 44 43
67 66 65 64 62 60 58 55 53 50 49 50 53 55 57 59 61 64 70 77 83 87 90 91 89 87 86 87 87 87 86 85 82 81 79 76 73 73 74 77 79 80 77 76 75 75 76 74 73 73 71 67 65 64 65 66 64 61 58 56 56 55 55 55 56 56 56 54 50 46 45 45 45 46 47 45 44 43 44 45 46 45 45 45 47 48 46 45
67 67 64 63 61 59 58 58 56 53 51 51 52 54 57 58 60 62 67 73 80 85 89 91 90 90 89 90 90 88 87 86 83 81 79 76 74 75 76 77 80 81 78 76 76 77 78 75 74 76 74 70 67 65 65 67 65 62 59 58 59 58 57 58 59 59 58 55 52 49 48 48 48 48 48 46 45 45 45 46 46 46 46 47 49 50 49 47
67 67 64 61 60 59 59 61 59 55 53 52 51 53 55 56 59 61 64 71 78 83 87 90 91 91 91 92 90 88 87 86 83 82 81 79 77 76 77 78 80 80 77 75 77 79 78 75 76 78 76 70 68 66 65 66 66 64 62 61 61 61 60 61 63 62 59 57 56 54 52 51 51 49 48 48 47 48 47 46 46 47 47 48 50 51 50 48
67 67 64 61 60 60 61 62 60 56 54 51 50 52 54 55 58 60 62 68 75 81 86 88 91 93 92 92 91 89 87 86 84 84 83 83 81 79 79 78 77 77 76 75 77 79 77 76 77 78 76 71 70 69 68 69 69 68 67 65 63 63 64 65 65 64 62 61 60 58 55 53 51 51 50 50 49 49 49 47 46 46 46 48 51 52 51 50
67 68 66 63 62 61 62 63 61 58 55 52 51 53 54 55 58 59 60 65 71 79 84 88 91 93 92 93 93 91 88 86 86 86 86 85 84 82 81 78 75 74 74 76 78 78 77 76 76 77 76 73 72 72 72 72 71 70 70 69 67 67 68 68 67 65 64 63 62 60 58 54 53 53 53 52 51 51 51 49 47 46 47 50 53 53 53 52
69 69 69 67 64 63 64 66 65 62 58 54 53 54 54 56 58 58 60 65 71 78 84 88 91 93 94 94 94 93 91 89 88 89 89 86 84 82 80 78 75 75 74 76 77 77 76 75 74 75 75 74 74 74 73 72 72 72 71 71 71 70 70 69 67 66 66 65 65 63 60 57 55 55 55 55 55 55 53 50 48 47 49 52 53 54 56 56
72 72 71 70 68 66 67 69 68 64 61 58 56 56 55 55 58 59 62 66 72 78 84 88 92 96 97 96 96 96 94 91 91 91 90 86 83 83 80 78 78 77 76 75 75 75 74 73 72 72 74 75 75 73 72 72 72 72 72 72 73 73 71 70 69 68 68 68 67 66 63 59 58 57 58 59 59 57 54 51 50 50 52 53 54 56 58 58
75 75 75 74 72 71 70 72 71 67 64 61 57 55 54 54 57 60 61 65 71 77 82 87 92 95 97 97 97 98 97 94 94 93 90 86 83 83 81 80 79 79 78 77 76 76 74 72 70 70 72 74 74 72 71 71 71 72 72 72 73 72 71 71 72 72 72 71 70 69 66 62 61 62 62 62 61 59 56 54 53 53 53 56 58 60 59 59
77 77 77 76 76 75 74 74 73 70 67 62 57 55 55 55 57 58 58 62 68 74 79 84 89 92 95 97 98 99 99 97 96 93 89 86 85 83 82 80 79 79 78 79 79 78 75 72 71 71 72 72 72 71 70 69 70 70 71 71 71 71 71 73 74 75 75 74 72 70 68 65 65 66 66 65 64 61 59 58 58 57 57 60 62 63 62 60
80 80 80 79 79 78 78 77 75 72 68 63 59 58 58 57 57 58 58 60 65 71 75 81 87 90 94 97 99 100 101 99 96 92 89 87 85 83 82 81 79 79 79 80 80 78 75 75 74 74 73 73 72 71 69 69 69 69 70 69 70 71 72 74 75 75 74 74 73 71 70 68 69 69 68 66 65 65 64 63 62 61 61 62 64 66 66 64
Wind_Direction
237 237 237 239 240 243 246 249 251 251 252 256 261 264 268 277 289 300 308 317 326 335 347 354 3 9 15 18 19 18 17 18 18 19 19 22 25 27 30 32 33 32 31 33 34 35 35 36 35 35 37 36 30 24 19 13 343 236 194 202 212 202 188 180 198 205 199 193 178 157 143 138 133 123 116 124 154 196 218 231 237 238 240 244 248 251 253 254
239 239 238 238 239 241 243 246 250 253 254 256 258 261 264 267 274 285 294 302 312 319 329 338 347 357 5 11 15 15 15 15 16 17 17 18 21 23 26 29 31 31 30 31 32 33 34 35 34 32 35 37 34 29 23 19 14 343 198 188 197 195 183 189 201 197 192 181 157 134 122 113 105 95 84 78 81 90 107 206 228 227 227 231 241 251 255 257
242 241 241 240 240 240 241 243 245 248 252 256 258 260 263 265 267 273 282 291 299 306 314 322 330 340 350 360 7 11 11 12 12 14 15 16 17 19 22 25 28 30 29 29 30 32 32 34 35 32 34 38 37 31 28 30 31 13 248 182 184 187 183 199 205 189 177 159 139 124 117 111 106 97 84 77 81 90 114 162 195 199 197 192 194 222 240 247
243 243 243 243 242 242 242 242 243 244 246 249 253 257 261 263 265 266 272 281 288 294 300 308 315 323 332 343 354 2 6 8 8 8 11 13 14 16 18 21 24 27 29 28 28 30 31 32 34 33 32 38 39 32 30 36 38 30 1 190 181 185 184 199 206 188 167 147 136 127 126 126 119 106 95 91 90 103 143 162 166 172 170 166 163 175 210 231
245 245 244 244 244 244 244 243 243 244 245 245 246 249 254 259 263 264 266 271 278 284 290 295 302 308 315 325 336 347 356 1 3 4 5 8 11 13 16 17 20 24 27 28 27 27 29 31 32 33 31 35 39 33 32 37 40 44 40 142 180 184 184 196 201 184 163 147 140 133 136 140 129 114 102 102 104 102 140 151 144 154 157 157 156 159 197 232
248 247 247 246 246 245 245 245 244 245 245 246 245 245 247 250 256 261 263 264 269 275 281 285 290 295 301 309 318 329 341 350 355 358 359 1 5 10 13 14 15 19 24 27 28 27 27 29 30 32 31 33 38 36 33 36 37 44 53 65 136 169 174 189 189 172 158 147 145 140 139 141 135 123 102 100 121 123 130 141 139 151 157 156 157 161 189 229
250 250 250 249 248 248 247 247 246 246 245 245 246 246 245 245 248 254 259 261 263 267 272 277 281 285 289 296 304 313 323 333 342 349 351 353 357 4 9 11 11 13 19 24 27 28 26 27 28 31 33 33 37 38 36 36 35 41 51 60 81 141 168 182 178 164 155 147 145 139 135 134 137 131 104 96 118 139 153 151 164 176 168 164 162 166 185 211
249 250 250 251 251 250 250 249 249 248 247 246 246 246 246 246 245 247 252 257 259 262 266 270 274 277 280 285 292 301 309 314 324 335 342 344 347 355 3 7 9 9 12 19 25 28 27 27 27 28 33 36 38 40 39 38 36 40 48 59 73 111 158 174 171 162 154 148 142 135 131 129 133 127 102 96 108 136 155 154 183 187 162 173 175 168 202 228
250 249 250 250 251 251 252 251 251 250 249 248 247 246 246 247 246 245 247 252 255 257 261 264 268 271 274 277 282 291 296 299 309 321 327 332 337 343 354 2 4 5 7 13 19 25 28 28 28 26 31 37 41 41 40 38 39 42 48 56 66 85 122 155 167 168 159 151 143 134 130 129 131 121 100 91 91 113 122 103 115 120 80 88 125 331 317 304
252 251 250 250 251 251 252 252 252 252 251 250 249 248 247 246 247 246 246 248 252 254 256 260 263 266 269 271 275 281 283 289 299 305 309 316 324 330 340 352 358 360 3 7 12 20 25 28 29 26 27 35 42 43 40 37 39 45 51 56 63 75 94 123 153 166 162 154 148 139 134 132 126 112 94 78 77 88 84 75 47 24 39 48 37 20 11 10
254 253 252 251 251 251 251 252 252 252 252 251 251 250 249 247 247 247 247 247 249 252 254 257 260 262 264 266 269 272 275 282 288 290 294 301 309 317 326 338 347 351 356 2 6 12 19 24 29 27 24 31 42 45 40 36 39 43 50 56 61 70 84 99 120 148 162 162 157 146 137 130 116 99 82 60 64 83 75 63 44 41 56 53 49 55 55 53
254 254 254 253 252 251 251 251 252 252 252 252 251 251 250 249 248 247 247 247 247 250 252 254 257 259 260 262 264 265 269 275 278 280 284 290 297 304 311 322 333 340 347 355 1 5 11 17 24 27 24 26 39 45 40 38 41 42 46 52 58 65 76 87 97 115 141 155 160 150 134 123 107 92 77 59 66 76 70 70 70 69 65 59 59 63 62 60
254 254 254 254 253 252 251 251 251 252 252 252 252 251 250 250 249 248 248 248 247 248 250 253 255 257 257 259 260 261 265 267 270 274 278 282 287 291 298 307 316 325 332 344 352 358 4 9 17 23 25 25 33 41 38 37 43 45 46 50 54 61 68 76 83 90 102 112 120 118 109 107 101 93 85 73 73 76 77 82 84 78 67 62 61 59 59 63
252 252 253 253 253 253 252 251 251 251 252 252 252 252 251 250 249 249 249 249 249 248 248 250 253 254 255 256 257 258 260 261 264 269 273 277 278 281 285 292 300 308 316 328 339 349 357 2 7 13 23 26 27 34 35 34 42 47 49 50 52 58 64 69 72 75 79 83 87 88 87 93 97 102 98 79 72 75 79 84 82 74 66 61 56 51 51 62
252 251 251 252 252 252 252 252 251 251 251 251 252 252 251 251 250 250 249 249 249 249 248 249 250 252 253 254 254 254 256 258 261 264 267 269 270 272 275 279 286 293 301 311 322 334 345 354 358 1 13 24 24 27 30 30 38 46 51 53 53 56 61 67 71 73 76 79 81 84 86 92 97 103 97 77 72 72 72 73 68 65 63 55 49 44 46 57
253 252 251 250 251 251 251 251 251 251 250 250 250 251 251 251 251 251 250 249 249 249 249 249 249 250 251 253 253 253 255 256 258 259 260 263 266 267 269 271 276 282 289 297 305 315 326 340 349 351 358 13 21 22 23 25 31 40 48 54 56 56 59 64 69 72 76 80 83 85 85 87 88 90 87 80 78 72 66 66 66 67 65 60 55 50 51 62
252 252 251 251 250 250 250 250 250 250 250 250 249 249 250 251 251 251 251 250 248 248 249 249 249 249 250 252 253 253 253 254 253 254 256 259 262 264 266 268 271 275 280 285 291 298 306 319 332 339 343 355 10 14 16 20 24 29 40 49 55 58 60 62 66 68 72 75 79 83 85 86 86 84 82 80 78 72 68 66 65 67 66 62 60 55 56 67
251 251 251 251 250 249 249 249 249 249 249 249 249 248 248 249 249 250 251 251 250 249 249 250 250 250 250 251 253 253 252 252 251 251 253 255 258 261 264 267 268 270 273 276 280 284 290 298 308 320 327 339 352 0 5 12 19 21 25 38 49 55 60 62 64 67 69 72 74 77 80 84 87 87 83 79 77 74 70 67 66 64 62 59 57 56 58 67
250 250 250 250 250 250 249 248 248 248 248 248 248 248 248 248 248 249 250 252 251 250 250 250 251 252 252 251 252 253 252 251 251 250 250 252 254 257 260 263 265 266 266 268 271 276 280 283 289 299 308 321 331 339 349 355 9 18 14 19 32 46 57 61 63 64 66 70 72 73 74 75 79 84 86 83 79 75 72 68 65 61 57 52 50 52 55 60
250 250 249 249 249 249 249 248 248 248 247 246 247 248 248 247 247 246 248 249 250 249 249 249 250 251 251 251 252 253 252 251 251 251 250 250 252 254 256 258 260 261 261 262 266 270 273 274 278 283 290 300 309 316 327 334 346 6 6 3 9 23 45 59 62 62 63 68 75 75 71 71 71 71 73 74 73 71 66 61 58 56 53 48 47 47 48 48
250 250 249 249 248 248 248 248 248 248 247 246 245 246 247 246 246 245 245 246 247 247 247 247 248 249 249 250 250 250 251 251 251 250 249 249 250 252 253 254 255 256 257 259 263 264 266 269 272 275 279 285 289 296 305 313 322 334 343 348 351 353 8 42 60 62 62 64 73 79 74 71 74 72 68 63 59 59 59 58 57 54 51 48 47 46 43 40
250 249 249 248 248 248 248 248 247 247 247 246 245 245 246 246 245 244 245 246 246 247 247 247 247 247 247 248 249 249 251 252 251 250 249 248 249 249 250 250 251 253 255 257 258 259 261 264 267 270 273 275 278 283 287 293 303 311 313 312 324 331 335 352 27 55 63 61 60 70 76 75 75 73 72 67 58 52 49 53 58 55 49 44 43 42 35 32
250 250 249 248 248 247 247 247 247 247 247 246 246 245 245 245 245 244 244 246 246 246 247 248 248 248 248 248 248 248 249 250 251 250 249 248 248 248 249 250 250 252 254 254 255 257 259 261 264 266 268 270 272 275 277 279 284 291 295 296 296 302 314 322 331 358 45 67 64 55 61 76 74 48 44 53 56 52 44 41 43 45 42 36 34 34 27 24
251 250 249 249 248 247 246 246 247 247 247 246 245 245 245 245 245 244 244 246 247 245 245 247 249 249 249 248 248 248 248 249 250 250 249 247 248 248 249 249 250 251 252 252 253 256 258 258 260 261 263 266 268 270 271 271 271 273 280 287 290 288 289 303 311 313 308 294 133 93 59 56 74 44 22 17 24 43 47 42 34 27 28 27 25 21 17 14
251 250 250 249 248 247 246 245 246 246 246 246 245 244 244 244 245 245 244 244 246 245 243 244 246 246 247 248 249 248 248 249 249 249 248 247 246 247 247 248 249 249 248 249 251 253 255 255 256 259 261 263 264 265 267 267 266 265 268 272 277 282 278 275 284 289 283 277 265 218 169 71 46 58 38 3 346 349 9 24 25 8 3 6 7 4 1 358
251 250 250 249 248 248 246 245 245 245 245 245 244 244 244 244 244 244 244 244 245 245 242 243 244 244 245 246 247 247 247 248 248 248 248 247 246 246 247 248 248 247 247 247 248 252 254 253 254 257 258 259 260 261 262 263 263 260 260 259 258 266 271 263 254 263 270 273 276 272 251 246 264 280 296 307 312 318 325 335 341 335 334 339 342 342 343 343
251 250 249 249 248 248 247 245 245 245 244 244 244 244 243 243 242 243 243 243 245 246 243 242 243 243 242 243 245 246 246 247 247 247 247 246 245 246 247 247 247 247 247 247 248 250 251 250 250 253 254 255 257 258 258 260 261 258 256 254 250 250 260 264 254 248 257 268 273 277 274 264 258 265 272 276 288 299 305 310 312 310 311 315 320 320 325 328
252 250 249 249 248 247 246 245 244 245 245 243 243 243 242 241 241 241 241 242 243 245 243 242 242 242 241 241 243 245 245 246 247 247 247 246 245 245 246 246 246 246 246 246 245 246 249 248 247 250 253 255 256 257 258 259 259 257 254 254 252 247 249 259 261 254 252 260 269 273 274 272 267 262 263 268 276 287 295 298 301 303 306 308 310 310 313 316
255 251 249 248 247 247 247 245 243 243 244 243 242 242 241 240 240 239 239 239 240 242 243 242 242 242 242 241 241 242 243 245 247 247 247 248 247 246 245 245 245 246 248 247 244 246 250 249 247 250 254 255 256 257 258 259 259 257 255 255 255 252 248 250 257 260 255 251 255 262 268 268 265 262 264 270 274 276 283 292 298 300 303 306 308 308 309 310
260 255 251 249 247 246 246 245 243 242 243 243 242 241 241 239 239 238 237 238 238 239 241 242 241 241 241 240 239 240 241 242 244 245 246 247 247 246 245 245 245 246 247 247 247 248 250 249 249 251 254 255 256 258 258 259 259 257 255 255 255 255 252 248 252 256 258 256 249 246 255 263 265 263 261 266 271 271 273 280 290 295 298 300 302 305 307 308
265 260 255 251 248 246 245 245 243 241 241 242 242 241 240 239 238 237 236 236 237 237 239 240 240 240 240 239 238 238 239 240 242 243 244 246 246 246 246 246 246 247 247 247 248 250 250 251 252 251 251 253 255 256 257 257 258 258 256 255 254 255 254 250 250 252 257 261 256 247 250 262 271 270 264 260 263 269 274 277 280 287 292 294 297 300 302 304
268 264 261 256 252 247 244 243 243 242 240 240 241 240 239 238 237 236 237 236 235 236 236 237 238 238 238 238 237 236 237 238 240 241 243 244 245 245 246 246 246 246 245 245 246 248 248 248 247 246 247 250 252 253 254 255 257 258 257 255 254 254 253 251 250 251 251 256 257 253 249 256 269 273 272 268 265 266 272 277 279 282 285 291 296 298 300 303
269 267 265 261 257 251 245 241 242 242 240 239 239 239 238 237 236 236 237 236 235 235 235 235 236 236 236 237 237 236 236 237 238 239 241 243 243 243 244 245 245 245 244 242 242 243 244 243 243 244 245 248 249 250 250 252 254 255 255 255 254 253 254 254 254 252 250 251 253 252 249 252 259 265 270 273 271 269 271 276 278 279 281 285 289 293 299 304
272 269 267 265 261 255 247 241 240 242 241 238 237 238 238 236 235 236 236 235 234 234 234 233 234 235 235 236 236 237 237 238 238 238 239 241 242 242 243 245 245 246 245 243 243 244 244 244 244 243 243 245 247 247 248 249 251 253 254 254 255 255 256 256 254 252 250 250 252 254 253 253 254 257 263 267 269 272 274 276 278 278 279 280 280 286 294 297
276 272 270 267 263 258 250 243 240 241 241 238 236 236 237 235 234 234 235 235 234 234 233 232 232 234 234 234 235 236 237 237 238 238 238 239 241 241 241 243 244 244 245 244 245 246 246 246 245 244 243 245 247 248 248 248 250 252 253 254 256 257 255 253 252 253 254 253 254 258 256 254 253 255 258 261 265 269 273 275 276 280 281 279 279 283 286 288
278 274 271 268 264 260 255 248 241 239 240 238 235 235 235 233 232 232 234 234 234 234 233 232 232 233 234 234 234 235 236 236 236 237 238 238 240 240 239 241 242 242 243 243 243 244 244 243 243 243 244 246 248 250 249 248 250 251 253 254 255 254 253 252 251 253 257 257 256 256 256 255 254 255 257 259 261 265 269 272 273 277 280 280 280 281 281 282
277 274 272 269 266 261 258 252 244 239 239 238 235 233 233 232 231 231 232 233 233 233 232 232 231 232 233 234 234 234 235 235 236 236 237 236 238 240 239 240 241 241 242 242 241 242 242 241 240 241 241 243 246 247 246 246 248 251 252 252 252 253 254 254 254 254 256 257 256 255 255 256 256 256 257 259 261 262 265 268 271 274 276 278 280 281 281 282
275 272 271 270 268 264 259 255 248 241 238 237 236 233 231 230 230 230 230 231 232 232 231 231 231 230 231 232 233 234 234 235 235 235 235 235 236 238 239 238 239 240 241 241 241 242 242 241 241 241 240 241 243 244 244 246 250 253 253 252 254 256 257 257 255 253 253 255 256 256 256 257 258 257 258 261 263 264 265 268 272 273 273 275 277 280 283 284
272 270 270 270 268 264 260 256 251 244 238 236 236 232 229 229 229 229 229 230 231 230 230 231 230 229 229 231 232 233 234 234 235 235 235 234 233 236 238 237 237 238 239 240 241 241 241 241 242 242 241 241 242 244 247 249 252 254 254 255 256 257 258 257 256 254 253 254 254 256 256 257 258 258 258 260 262 264 266 268 271 272 271 272 274 277 279 282
270 269 269 269 267 264 261 257 254 246 239 236 236 233 230 230 230 229 229 229 229 229 229 230 229 228 228 229 230 232 233 233 234 234 234 233 232 233 236 237 236 236 237 238 239 239 240 240 242 242 242 243 244 247 250 251 251 252 253 254 255 255 256 257 257 257 256 255 254 254 255 255 257 258 258 259 260 261 263 265 267 269 270 271 272 273 274 277
268 267 267 267 265 264 261 258 255 248 241 237 236 234 231 230 231 230 229 229 228 228 228 229 229 228 228 229 230 231 231 232 232 233 233 233 231 232 235 237 236 236 236 237 238 239 240 241 242 242 243 244 245 245 247 248 248 249 250 251 252 253 255 257 258 258 257 256 255 254 255 255 257 259 259 257 258 259 260 262 263 266 268 270 270 271 271 272
267 265 265 265 264 263 261 258 255 250 244 240 237 234 231 231 232 232 230 229 228 227 227 228 228 228 228 228 229 230 231 231 231 232 232 232 231 231 233 236 236 236 236 236 237 238 239 240 241 242 242 244 244 242 244 247 248 249 250 251 252 253 255 257 258 257 256 256 256 257 258 259 259 259 259 258 257 258 259 260 261 262 265 268 270 270 270 272
265 263 263 263 262 262 261 259 256 251 246 241 236 233 232 231 232 233 230 228 227 226 226 227 227 227 227 228 228 228 230 230 230 230 231 231 231 230 231 233 235 235 235 235 236 237 238 238 240 242 241 241 242 242 243 246 247 248 249 251 252 253 255 256 257 257 257 258 259 259 260 260 258 258 259 259 258 258 258 259 261 262 264 267 269 270 270 272
262 261 260 260 261 261 260 258 255 251 247 242 236 234 233 231 233 233 230 227 226 225 225 225 226 226 227 227 227 227 228 229 230 230 230 230 230 230 230 231 234 236 235 235 236 237 239 239 240 242 242 242 242 243 245 248 250 250 250 251 253 254 254 256 257 258 259 261 261 260 259 259 258 258 260 261 261 260 259 260 262 264 265 267 269 270 272 273
260 259 259 258 258 258 257 256 253 250 247 242 237 235 233 232 234 234 230 226 225 224 223 224 225 226 226 228 228 228 228 228 229 230 229 229 228 229 231 231 233 235 236 235 236 237 238 238 240 242 243 243 244 245 247 249 251 251 250 249 251 253 254 255 256 258 259 260 261 260 258 258 259 261 262 264 264 264 264 265 266 266 268 269 270 271 273 274
257 257 256 254 254 253 254 255 254 251 248 243 239 238 235 233 235 234 230 227 225 224 222 222 223 225 226 228 228 228 228 228 228 229 229 229 227 227 229 231 232 235 237 236 237 238 238 238 239 242 243 242 242 243 243 245 247 249 250 249 248 249 251 252 253 255 257 258 259 260 260 260 262 264 264 265 266 267 268 268 268 270 271 272 272 272 274 274
255 254 254 252 251 251 252 254 254 252 249 243 240 239 236 234 236 234 230 227 224 223 222 220 221 223 224 226 228 228 227 227 228 229 229 229 228 227 228 229 231 234 237 238 238 239 239 239 240 242 243 242 242 242 242 243 245 247 249 250 250 250 251 252 254 256 257 259 260 261 262 263 264 265 266 266 266 266 266 268 270 272 273 272 273 274 275 274
253 252 252 251 250 250 251 253 252 252 249 245 242 241 237 235 235 233 229 226 223 221 221 219 219 221 221 223 226 227 226 226 227 228 228 229 229 229 229 229 229 231 233 236 239 240 240 240 241 242 244 244 243 242 243 244 245 246 247 250 252 253 254 256 257 259 260 261 261 262 263 263 264 265 266 266 265 265 266 269 272 273 272 272 274 276 276 276
251 251 250 250 249 248 249 251 251 250 249 246 243 241 237 235 236 233 229 226 223 220 220 219 218 219 220 221 223 225 225 225 226 228 228 227 229 230 230 229 230 231 232 234 237 239 240 241 242 243 244 245 244 244 244 245 246 247 248 249 250 253 255 258 259 260 261 261 262 262 263 263 264 264 264 265 266 267 269 272 273 272 272 273 274 274 275 277
250 249 249 249 248 248 247 249 250 249 248 246 243 241 238 237 238 236 231 228 225 221 219 219 219 219 220 220 222 224 224 223 224 226 227 227 227 229 231 230 231 232 232 233 235 237 239 240 241 243 244 245 246 246 245 246 247 248 248 249 250 252 254 256 257 258 258 259 260 262 263 264 265 265 265 266 268 269 271 272 271 271 271 272 272 273 274 277
247 247 247 247 247 247 246 247 248 248 247 245 243 241 240 239 239 238 234 231 228 223 219 219 219 220 221 221 222 223 224 224 224 224 225 226 226 228 230 231 231 233 233 234 236 237 238 239 239 241 243 245 247 247 247 247 248 249 250 250 251 252 253 253 254 255 256 258 260 262 264 265 265 265 266 267 269 270 270 270 270 270 270 271 272 273 274 275
245 244 244 244 245 245 245 245 246 246 246 244 243 241 240 238 238 236 234 232 230 225 220 219 220 220 221 222 222 223 224 224 224 224 224 226 226 226 228 230 231 232 234 235 237 238 239 239 240 240 242 243 245 246 247 248 249 249 250 251 252 253 253 253 254 255 257 258 259 260 262 262 263 264 265 267 268 268 268 268 268 269 270 271 272 273 274 275
Height
11021 11021 11022 11023 11023 11024 11024 11024 11025 11025 11026 11026 11026 11026 11027 11027 11026 11026 11026 11026 11026 11026 11026 11026 11025 11025 11025 11024 11023 11022 11021 11020 11018 11016 11015 11013 11012 11011 11009 11008 11006 11005 11003 11001 10999 10997 10995 10993 10991 10989 10986 10983 10982 10980 10977 10976 10976 10976 10976 10977 10979 10980 10980 10981 10982 10983 10984 10984 10984 10985 10985 10986 10986 10986 10987 10988 10989 10989 10989 10990 10990 10990 10990 10990 10990 10991 10992 10992
11018 11019 11020 11021 11021 11022 11022 11023 11023 11024 11024 11025 11025 11025 11026 11026 11026 11026 11025 11025 11025 11025 11025 11025 11025 11025 11025 11024 11024 11023 11022 11021 11020 11018 11016 11015 11013 11012 11010 11009 11007 11006 11004 11002 11001 10999 10997 10994 10992 10991 10987 10984 10982 10981 10979 10976 10975 10975 10976 10976 10978 10979 10979 10981 10982 10982 10983 10983 10983 10983 10984 10985 10985 10986 10986 10987 10988 10989 10989 10989 10990 10990 10990 10989 10989 10990 10991 10991
11015 11016 11017 11018 11019 11020 11020 11021 11022 11022 11023 11023 11024 11024 11025 11025 11025 11025 11025 11024 11024 11024 11024 11024 11024 11025 11024 11024 11024 11024 11023 11022 11021 11019 11018 11016 11015 11013 11012 11010 11009 11007 11006 11004 11002 11001 10999 10997 10994 10993 10990 10986 10983 10982 10982 10978 10975 10975 10975 10976 10977 10978 10979 10980 10982 10982 10982 10982 10982 10983 10984 10984 10985 10986 10987 10988 10988 10989 10989 10990 10990 10990 10990 10990 10990 10990 10990 10991
11012 11013 11014 11015 11016 11017 11018 11019 11020 11020 11021 11021 11022 11023 11023 11024 11024 11024 11024 11024 11024 11023 11023 11024 11024 11024 11024 11024 11024 11024 11023 11023 11022 11020 11019 11018 11016 11015 11013 11012 11010 11009 11007 11005 11004 11002 11001 10998 10996 10994 10992 10987 10983 10984 10983 10978 10977 10976 10976 10976 10977 10978 10979 10981 10981 10982 10982 10982 10982 10983 10984 10984 10985 10986 10987 10988 10989 10989 10990 10990 10991 10991 10991 10991 10990 10990 10990 10991
11009 11010 11011 11012 11013 11014 11015 11016 11017 11018 11018 11019 11020 11021 11021 11022 11022 11023 11023 11023 11023 11023 11022 11023 11023 11023 11023 11024 11024 11024 11023 11023 11022 11021 11020 11019 11018 11016 11014 11013 11012 11010 11008 11007 11005 11003 11002 11000 10998 10995 10993 10989 10984 10984 10983 10979 10979 10979 10978 10978 10978 10979 10980 10981 10981 10981 10982 10982 10982 10983 10984 10984 10985 10987 10988 10989 10989 10990 10990 10991 10991 10991 10991 10991 10991 10991 10991 10991
11006 11007 11008 11009 11010 11011 11012 11013 11014 11015 11016 11017 11017 11018 11019 11020 11021 11021 11022 11022 11022 11022 11021 11021 11022 11022 11022 11023 11023 11023 11023 11023 11022 11022 11021 11020 11019 11017 11016 11014 11013 11012 11010 11008 11006 11005 11003 11001 10999 10997 10994 10991 10987 10986 10984 10982 10983 10981 10980 10979 10979 10979 10980 10981 10981 10981 10982 10983 10983 10983 10984 10985 10986 10987 10988 10989 10989 10990 10991 10991 10991 10991 10991 10991 10991 10991 10991 10991
11002 11003 11004 11005 11006 11007 11008 11009 11010 11012 11013 11014 11014 11015 11017 11018 11019 11019 11020 11020 11021 11021 11021 11020 11020 11021 11021 11021 11022 11022 11022 11022 11022 11022 11021 11020 11019 11018 11017 11015 11014 11013 11011 11010 11008 11006 11004 11002 11001 10999 10996 10994 10990 10988 10986 10986 10986 10984 10982 10980 10979 10980 10980 10981 10981 10982 10983 10983 10984 10984 10984 10985 10986 10987 10988 10989 10989 10990 10990 10991 10990 10991 10991 10991 10991 10991 10991 10991
10998 11000 11001 11002 11003 11004 11005 11006 11007 11008 11009 11010 11011 11012 11013 11015 11016 11017 11017 11018 11019 11019 11019 11019 11019 11019 11019 11020 11021 11021 11021 11022 11022 11021 11021 11020 11019 11019 11018 11017 11015 11013 11012 11011 11009 11008 11006 11004 11003 11001 10999 10996 10993 10991 10990 10990 10989 10986 10984 10982 10981 10980 10981 10981 10982 10983 10984 10984 10985 10985 10985 10986 10987 10988 10988 10989 10989 10990 10990 10990 10990 10991 10990 10990 10990 10990 10990 10991
10994 10996 10997 10998 10999 11001 11002 11003 11003 11004 11005 11007 11008 11009 11010 11011 11013 11014 11015 11015 11016 11017 11018 11018 11018 11017 11018 11018 11019 11020 11020 11020 11021 11021 11021 11020 11019 11019 11018 11017 11016 11014 11013 11012 11011 11009 11008 11006 11005 11004 11002 10999 10996 10994 10993 10994 10993 10989 10986 10983 10982 10981 10981 10982 10983 10984 10984 10985 10985 10985 10986 10986 10987 10988 10989 10989 10989 10990 10990 10990 10991 10991 10990 10990 10990 10989 10989 10990
10990 10991 10993 10994 10995 10997 10998 10999 11000 11001 11002 11003 11004 11005 11006 11007 11009 11010 11012 11013 11014 11015 11015 11016 11016 11016 11016 11017 11018 11019 11018 11019 11020 11020 11020 11019 11019 11018 11018 11018 11017 11015 11014 11013 11012 11010 11009 11008 11006 11005 11004 11002 10998 10996 10996 10998 10996 10993 10989 10986 10984 10983 10983 10983 10984 10984 10985 10986 10986 10986 10987 10987 10988 10989 10989 10990 10990 10990 10990 10990 10991 10990 10990 10990 10989 10989 10989 10989
10984 10986 10988 10989 10991 10992 10994 10995 10996 10997 10998 10999 11000 11001 11003 11004 11005 11007 11008 11010 11011 11012 11013 11013 11013 11014 11014 11014 11016 11017 11017 11018 11019 11018 11019 11019 11018 11018 11017 11018 11017 11016 11015 11013 11012 11011 11010 11009 11007 11006 11006 11004 11000 10998 11000 11001 10998 10995 10992 10989 10987 10985 10985 10985 10985 10985 10986 10986 10987 10987 10988 10988 10988 10989 10990 10990 10990 10990 10990 10990 10990 10990 10990 10990 10989 10988 10988 10988
10979 10980 10982 10984 10986 10987 10989 10991 10992 10993 10994 10995 10996 10997 10999 11000 11001 11003 11004 11006 11008 11009 11009 11010 11011 11011 11012 11012 11014 11015 11015 11016 11017 11017 11017 11018 11017 11017 11017 11017 11017 11016 11015 11014 11013 11012 11011 11010 11008 11007 11007 11006 11002 11000 11002 11003 11000 10997 10995 10992 10990 10988 10988 10987 10987 10987 10987 10987 10988 10988 10989 10989 10989 10989 10990 10991 10991 10991 10991 10990 10990 10990 10990 10990 10989 10989 10988 10988
10972 10974 10976 10978 10980 10982 10984 10986 10987 10989 10990 10991 10992 10994 10995 10996 10998 10999 11001 11002 11004 11005 11006 11007 11008 11008 11009 11010 11011 11013 11014 11014 11015 11015 11016 11016 11016 11016 11016 11016 11016 11016 11015 11014 11014 11012 11011 11010 11009 11008 11007 11006 11004 11003 11004 11004 11002 10999 10997 10995 10993 10991 10990 10989 10988 10988 10988 10988 10989 10989 10989 10989 10990 10990 10991 10991 10991 10991 10991 10990 10990 10991 10991 10990 10990 10989 10989 10989
10966 10967 10969 10971 10974 10976 10978 10980 10982 10984 10985 10987 10988 10989 10991 10992 10994 10996 10997 10999 11000 11002 11003 11004 11004 11004 11006 11007 11008 11010 11011 11011 11013 11013 11014 11014 11015 11014 11014 11015 11015 11015 11015 11014 11014 11013 11012 11011 11010 11009 11008 11007 11006 11005 11005 11005 11004 11001 10999 10998 10996 10994 10992 10991 10990 10989 10989 10989 10989 10990 10990 10990 10990 10991 10991 10992 10992 10991 10991 10991 10991 10991 10991 10991 10990 10990 10990 10989
10958 10960 10962 10964 10966 10969 10971 10973 10976 10978 10980 10981 10983 10984 10986 10988 10991 10992 10994 10995 10997 10998 10999 11000 11000 11001 11002 11003 11005 11007 11008 11009 11011 11011 11011 11012 11012 11012 11012 11013 11014 11014 11014 11014 11013 11013 11012 11012 11010 11010 11008 11007 11007 11007 11006 11006 11005 11003 11002 11000 10999 10997 10996 10994 10992 10991 10991 10990 10991 10991 10991 10991 10991 10992 10992 10992 10992 10992 10992 10991 10991 10991 10991 10991 10990 10990 10990 10990
10950 10952 10955 10957 10959 10961 10964 10966 10969 10971 10973 10975 10977 10979 10981 10984 10987 10988 10990 10992 10993 10994 10995 10995 10996 10997 10998 10999 11001 11003 11005 11006 11008 11008 11009 11009 11010 11010 11010 11011 11012 11012 11012 11012 11013 11012 11012 11012 11011 11010 11009 11008 11008 11008 11007 11006 11005 11004 11003 11002 11000 10999 10998 10997 10995 10994 10993 10992 10992 10992 10992 10992 10992 10992 10992 10992 10993 10992 10992 10991 10991 10991 10991 10991 10990 10990 10990 10990
10942 10944 10946 10949 10951 10954 10957 10959 10961 10964 10966 10969 10971 10974 10976 10979 10983 10984 10985 10987 10989 10990 10991 10991 10992 10993 10994 10995 10997 11000 11001 11003 11004 11005 11006 11007 11008 11008 11008 11009 11010 11011 11011 11011 11011 11011 11011 11011 11011 11010 11010 11009 11008 11008 11008 11007 11006 11005 11004 11003 11002 11001 11000 10999 10997 10996 10995 10995 10994 10994 10994 10993 10993 10993 10993 10993 10993 10993 10992 10992 10992 10991 10991 10991 10991 10990 10990 10990
10933 10935 10937 10940 10943 10946 10949 10951 10953 10955 10959 10962 10964 10968 10971 10974 10978 10980 10981 10983 10984 10986 10987 10987 10988 10988 10990 10992 10993 10995 10997 10998 11000 11001 11003 11004 11005 11005 11006 11007 11008 11009 11009 11009 11010 11010 11010 11010 11010 11010 11009 11008 11008 11008 11007 11007 11006 11005 11005 11004 11003 11003 11002 11000 10999 10998 10998 10997 10996 10996 10995 10995 10994 10994 10994 10993 10993 10993 10993 10993 10992 10992 10992 10991 10991 10991 10990 10990
10924 10926 10928 10931 10934 10937 10940 10943 10944 10946 10950 10955 10957 10960 10965 10969 10972 10975 10977 10978 10980 10982 10983 10984 10984 10984 10987 10989 10990 10991 10992 10994 10995 10998 11000 11001 11002 11002 11003 11004 11006 11006 11007 11007 11007 11008 11008 11009 11009 11009 11008 11008 11007 11007 11007 11007 11006 11006 11005 11005 11004 11004 11003 11002 11001 11000 10999 10999 10998 10997 10997 10996 10996 10995 10995 10994 10994 10994 10994 10994 10993 10993 10993 10992 10992 10991 10991 10991
10914 10916 10919 10922 10924 10928 10931 10934 10935 10937 10942 10948 10951 10953 10959 10963 10965 10969 10971 10971 10972 10975 10978 10979 10979 10980 10982 10985 10986 10987 10988 10989 10991 10993 10996 10998 10998 10999 11000 11002 11002 11004 11004 11004 11005 11006 11006 11006 11007 11007 11007 11007 11007 11007 11007 11006 11006 11006 11006 11005 11005 11005 11004 11003 11002 11001 11000 10999 10999 10998 10998 10997 10997 10996 10996 10996 10995 10995 10994 10994 10994 10994 10994 10993 10992 10992 10991 10991
10904 10906 10909 10912 10915 10918 10921 10924 10925 10927 10933 10939 10943 10947 10952 10954 10956 10961 10964 10963 10964 10967 10971 10972 10972 10975 10977 10979 10981 10981 10983 10984 10986 10989 10992 10993 10995 10996 10997 10998 10999 11000 11001 11002 11003 11003 11003 11004 11004 11005 11005 11005 11005 11005 11006 11006 11005 11005 11005 11005 11005 11005 11004 11004 11003 11002 11001 11000 10999 10998 10998 10998 10997 10997 10997 10997 10996 10995 10995 10994 10994 10994 10994 10994 10993 10992 10992 10991
10893 10896 10899 10902 10906 10909 10912 10914 10915 10918 10923 10929 10935 10940 10942 10944 10947 10954 10957 10955 10957 10962 10965 10966 10966 10969 10972 10973 10974 10977 10979 10980 10981 10984 10987 10989 10991 10992 10992 10994 10995 10996 10998 11000 11000 10999 11000 11001 11002 11002 11003 11003 11004 11004 11004 11004 11004 11004 11004 11004 11005 11004 11004 11004 11004 11003 11002 11001 10999 10998 10998 10998 10998 10997 10997 10997 10997 10996 10995 10994 10994 10994 10994 10994 10993 10993 10992 10992
10883 10885 10888 10891 10895 10899 10902 10904 10905 10908 10913 10920 10927 10931 10931 10934 10940 10947 10950 10949 10951 10958 10960 10960 10961 10964 10967 10968 10968 10972 10974 10974 10976 10978 10982 10985 10986 10987 10988 10990 10991 10992 10995 10996 10996 10996 10997 10998 10999 11000 11000 11001 11002 11002 11002 11003 11003 11003 11003 11003 11003 11003 11003 11003 11003 11002 11002 11002 11001 10999 10998 10998 10998 10997 10997 10997 10997 10997 10996 10995 10995 10994 10994 10993 10993 10993 10992 10992
10872 10874 10877 10880 10884 10888 10891 10894 10896 10898 10903 10911 10916 10918 10921 10926 10932 10939 10943 10943 10944 10949 10953 10954 10957 10959 10960 10961 10963 10967 10968 10968 10970 10972 10976 10980 10981 10982 10984 10985 10987 10989 10991 10992 10992 10993 10994 10996 10997 10997 10997 10998 10999 11000 11000 11001 11001 11002 11002 11002 11002 11001 11002 11002 11002 11002 11002 11002 11002 11001 10999 10999 10998 10997 10996 10996 10997 10997 10996 10995 10995 10994 10993 10993 10993 10992 10992 10992
10860 10863 10866 10869 10873 10876 10880 10884 10886 10889 10894 10901 10904 10906 10912 10918 10925 10930 10934 10936 10934 10937 10946 10948 10949 10950 10951 10955 10959 10960 10962 10962 10964 10966 10970 10974 10976 10977 10978 10980 10983 10985 10986 10987 10989 10989 10990 10993 10994 10993 10995 10995 10996 10997 10997 10998 10999 11000 11000 11000 11001 11000 11000 11001 11001 11001 11001 11002 11002 11001 11001 10999 10998 10998 10997 10996 10996 10996 10996 10995 10995 10994 10993 10993 10993 10992 10992 10991
10849 10851 10854 10858 10861 10863 10868 10873 10876 10879 10884 10890 10891 10896 10905 10910 10917 10921 10924 10929 10926 10927 10939 10941 10938 10942 10945 10950 10951 10951 10955 10956 10957 10960 10964 10967 10970 10971 10973 10976 10978 10979 10981 10983 10985 10985 10986 10989 10991 10990 10991 10992 10993 10994 10994 10995 10996 10997 10998 10999 11000 11000 10999 11000 11001 11001 11001 11000 11000 11000 11000 10999 10999 10998 10998 10997 10996 10995 10994 10994 10994 10994 10994 10993 10993 10992 10992 10991
10838 10840 10842 10846 10849 10851 10855 10861 10866 10869 10873 10878 10881 10887 10896 10901 10908 10911 10914 10922 10919 10917 10929 10932 10929 10933 10938 10941 10941 10944 10950 10948 10948 10954 10957 10960 10964 10966 10968 10971 10973 10974 10976 10978 10982 10982 10981 10985 10987 10986 10987 10989 10990 10990 10991 10992 10993 10994 10995 10996 10997 10998 10998 10998 10999 10999 11000 10999 10998 10998 10999 10999 10999 10998 10998 10998 10997 10995 10994 10993 10993 10993 10993 10993 10992 10992 10991 10990
10827 10829 10831 10834 10837 10839 10841 10848 10856 10859 10861 10867 10872 10877 10885 10892 10897 10901 10906 10913 10910 10908 10916 10921 10921 10924 10929 10934 10936 10939 10942 10940 10942 10947 10949 10952 10957 10960 10964 10966 10966 10968 10970 10975 10977 10975 10976 10981 10982 10981 10983 10985 10985 10986 10987 10989 10989 10990 10992 10993 10994 10995 10996 10995 10996 10997 10997 10997 10997 10997 10997 10998 10998 10998 10998 10998 10997 10996 10994 10992 10992 10992 10991 10991 10991 10991 10990 10989
10816 10818 10821 10822 10826 10827 10826 10834 10846 10849 10849 10855 10863 10867 10874 10882 10886 10891 10899 10901 10898 10901 10905 10910 10913 10915 10920 10928 10931 10932 10934 10934 10936 10939 10942 10945 10950 10954 10958 10959 10959 10961 10966 10970 10970 10968 10972 10976 10977 10978 10980 10980 10980 10982 10984 10985 10984 10986 10988 10989 10990 10991 10993 10993 10993 10993 10995 10996 10996 10995 10995 10996 10997 10997 10998 10998 10997 10996 10994 10992 10991 10991 10990 10988 10988 10988 10989 10989
10804 10807 10811 10811 10815 10816 10814 10821 10834 10839 10838 10843 10852 10857 10863 10871 10875 10884 10891 10887 10888 10894 10896 10898 10902 10905 10911 10919 10923 10924 10926 10927 10927 10931 10935 10938 10942 10947 10950 10952 10953 10956 10962 10965 10965 10964 10968 10970 10972 10976 10977 10976 10975 10977 10980 10980 10979 10981 10983 10985 10986 10987 10988 10990 10991 10991 10991 10992 10993 10994 10994 10994 10994 10995 10996 10997 10996 10995 10995 10993 10991 10990 10989 10987 10986 10986 10986 10987
10793 10797 10800 10800 10802 10803 10803 10811 10821 10825 10828 10833 10839 10845 10853 10859 10866 10877 10878 10874 10880 10886 10884 10885 10890 10896 10901 10908 10914 10915 10916 10919 10920 10924 10928 10929 10934 10940 10943 10945 10948 10952 10957 10961 10961 10960 10963 10966 10970 10972 10972 10970 10971 10973 10976 10975 10974 10976 10978 10980 10981 10982 10984 10986 10987 10988 10988 10988 10989 10991 10992 10992 10992 10991 10993 10994 10994 10994 10993 10993 10991 10990 10988 10987 10985 10985 10984 10985
10784 10787 10789 10789 10789 10789 10793 10803 10809 10811 10818 10823 10826 10833 10841 10848 10860 10868 10862 10863 10872 10871 10868 10873 10878 10885 10890 10895 10903 10905 10906 10911 10913 10917 10920 10921 10927 10934 10936 10940 10943 10947 10952 10956 10955 10954 10958 10962 10964 10965 10966 10965 10966 10969 10971 10970 10970 10972 10973 10975 10977 10978 10979 10982 10983 10984 10985 10985 10985 10987 10989 10990 10990 10988 10989 10990 10991 10992 10992 10991 10990 10988 10987 10986 10985 10983 10982 10983
10774 10777 10778 10778 10777 10776 10784 10796 10799 10799 10806 10811 10815 10822 10829 10840 10854 10854 10847 10853 10858 10852 10856 10863 10867 10874 10880 10885 10892 10894 10897 10903 10905 10909 10912 10913 10919 10926 10929 10932 10935 10939 10945 10948 10946 10947 10952 10955 10957 10960 10961 10960 10961 10964 10966 10965 10965 10966 10968 10970 10971 10972 10974 10977 10979 10979 10981 10981 10981 10983 10986 10988 10988 10986 10986 10986 10987 10988 10989 10988 10987 10986 10986 10986 10984 10983 10981 10980
10765 10768 10767 10766 10765 10765 10773 10786 10791 10790 10793 10800 10806 10811 10819 10834 10842 10836 10835 10841 10839 10837 10846 10852 10856 10864 10872 10877 10882 10886 10892 10896 10897 10901 10904 10905 10912 10918 10922 10925 10929 10933 10937 10939 10940 10942 10946 10950 10953 10955 10955 10955 10955 10958 10959 10958 10959 10961 10963 10965 10966 10968 10971 10972 10972 10973 10975 10977 10978 10980 10983 10984 10984 10984 10985 10984 10984 10984 10985 10985 10984 10983 10983 10983 10983 10982 10981 10979
10755 10757 10755 10753 10754 10756 10764 10776 10781 10780 10782 10788 10795 10802 10811 10821 10823 10820 10823 10823 10821 10826 10833 10839 10848 10857 10864 10870 10874 10879 10883 10887 10889 10892 10896 10900 10905 10911 10915 10918 10922 10926 10929 10933 10936 10936 10940 10946 10948 10948 10948 10948 10948 10951 10953 10951 10953 10956 10958 10961 10962 10963 10965 10966 10966 10967 10970 10972 10975 10976 10978 10979 10979 10981 10981 10981 10981 10981 10981 10981 10981 10980 10979 10979 10980 10980 10979 10977
10744 10746 10744 10741 10744 10750 10758 10764 10768 10771 10772 10777 10787 10796 10800 10803 10805 10806 10806 10805 10808 10816 10822 10833 10844 10850 10855 10861 10866 10871 10873 10877 10881 10883 10889 10895 10897 10902 10907 10910 10914 10918 10921 10927 10928 10928 10934 10939 10939 10940 10943 10943 10942 10944 10947 10946 10946 10950 10954 10957 10957 10956 10958 10960 10962 10964 10965 10968 10970 10971 10972 10973 10975 10977 10977 10977 10978 10978 10978 10978 10977 10977 10975 10974 10975 10976 10975 10974
10734 10734 10732 10731 10736 10745 10749 10749 10755 10761 10763 10768 10779 10784 10785 10788 10791 10791 10789 10790 10796 10804 10814 10827 10835 10841 10847 10853 10857 10861 10863 10867 10872 10876 10883 10889 10890 10894 10900 10904 10907 10911 10915 10918 10919 10921 10926 10929 10928 10931 10936 10936 10935 10937 10938 10939 10940 10944 10950 10951 10949 10949 10953 10956 10958 10960 10961 10962 10964 10965 10967 10969 10971 10972 10973 10973 10974 10974 10974 10974 10973 10974 10971 10970 10970 10970 10969 10969
10723 10722 10721 10724 10730 10734 10736 10737 10743 10750 10755 10761 10767 10770 10772 10774 10774 10772 10772 10775 10783 10795 10807 10816 10823 10831 10837 10842 10847 10850 10853 10857 10862 10868 10874 10880 10885 10887 10890 10895 10900 10904 10907 10908 10910 10914 10917 10918 10919 10923 10928 10929 10928 10928 10930 10933 10936 10940 10944 10943 10943 10945 10949 10951 10953 10955 10955 10956 10958 10959 10962 10964 10966 10968 10969 10969 10969 10969 10969 10969 10969 10968 10967 10966 10966 10965 10964 10963
10712 10710 10711 10717 10720 10720 10724 10728 10732 10739 10746 10751 10752 10755 10759 10758 10756 10756 10758 10763 10774 10788 10799 10804 10812 10821 10826 10831 10836 10839 10843 10848 10852 10858 10865 10873 10880 10879 10879 10886 10892 10895 10897 10898 10902 10906 10909 10910 10911 10916 10920 10920 10919 10921 10926 10932 10933 10934 10936 10938 10940 10942 10942 10943 10946 10949 10950 10951 10953 10954 10956 10959 10961 10962 10964 10965 10965 10965 10965 10965 10964 10962 10961 10961 10961 10961 10961 10960
10701 10699 10702 10707 10707 10708 10714 10719 10722 10727 10734 10738 10739 10743 10746 10745 10745 10745 10746 10753 10766 10779 10788 10792 10799 10809 10815 10819 10823 10827 10834 10838 10842 10849 10856 10864 10872 10872 10871 10876 10882 10886 10887 10889 10894 10896 10898 10902 10904 10908 10910 10910 10915 10921 10924 10926 10926 10927 10931 10933 10935 10935 10934 10935 10939 10942 10944 10945 10947 10948 10950 10953 10955 10957 10960 10960 10960 10961 10961 10960 10959 10957 10956 10956 10956 10957 10958 10959
10690 10689 10693 10696 10696 10699 10704 10709 10712 10716 10723 10727 10727 10729 10732 10733 10734 10734 10738 10746 10758 10770 10778 10782 10788 10798 10806 10810 10814 10817 10822 10826 10832 10839 10846 10855 10863 10866 10865 10867 10872 10875 10876 10880 10886 10888 10892 10897 10897 10899 10900 10904 10914 10919 10916 10914 10918 10921 10924 10927 10928 10929 10928 10929 10933 10935 10936 10937 10940 10942 10945 10948 10950 10951 10953 10955 10956 10956 10956 10955 10954 10954 10952 10952 10952 10953 10954 10954
10679 10679 10682 10684 10686 10689 10693 10698 10701 10705 10711 10713 10714 10717 10721 10723 10725 10726 10731 10739 10749 10760 10766 10771 10778 10788 10795 10800 10804 10806 10809 10816 10824 10831 10838 10846 10854 10859 10860 10858 10860 10863 10867 10873 10879 10882 10884 10887 10887 10889 10894 10900 10908 10911 10907 10906 10910 10914 10917 10920 10922 10923 10923 10924 10926 10927 10928 10930 10933 10936 10939 10943 10945 10944 10944 10948 10951 10951 10951 10950 10949 10949 10949 10948 10947 10947 10949 10949
10667 10669 10672 10674 10677 10680 10683 10687 10690 10694 10698 10700 10703 10708 10711 10713 10715 10716 10722 10730 10739 10747 10754 10760 10768 10776 10782 10787 10790 10794 10799 10806 10814 10821 10828 10838 10845 10850 10850 10848 10847 10850 10858 10865 10870 10872 10872 10876 10880 10881 10887 10894 10898 10901 10900 10899 10903 10909 10912 10914 10916 10917 10918 10918 10918 10918 10919 10923 10927 10932 10934 10936 10938 10937 10937 10941 10944 10945 10946 10945 10944 10945 10944 10944 10942 10941 10943 10944
10655 10657 10662 10665 10668 10671 10674 10675 10677 10681 10686 10689 10693 10697 10698 10702 10704 10706 10713 10721 10727 10735 10742 10749 10757 10764 10769 10772 10776 10783 10789 10797 10806 10813 10821 10829 10835 10837 10839 10839 10836 10839 10850 10858 10862 10862 10863 10870 10875 10872 10877 10887 10891 10895 10896 10894 10898 10905 10908 10909 10909 10910 10912 10911 10909 10910 10913 10916 10920 10925 10928 10929 10930 10931 10932 10934 10936 10937 10939 10939 10939 10939 10939 10938 10936 10934 10936 10938
10644 10645 10652 10657 10659 10661 10661 10660 10663 10669 10673 10677 10683 10686 10689 10693 10694 10696 10703 10710 10716 10722 10730 10739 10747 10752 10757 10761 10767 10775 10782 10789 10798 10804 10810 10816 10822 10825 10827 10829 10829 10832 10843 10851 10852 10852 10856 10864 10866 10863 10870 10882 10888 10892 10894 10891 10891 10895 10900 10903 10903 10903 10904 10904 10901 10903 10907 10909 10911 10915 10920 10921 10923 10925 10926 10927 10927 10929 10931 10933 10934 10933 10933 10933 10930 10928 10929 10932
10634 10635 10641 10646 10648 10649 10649 10648 10653 10659 10663 10668 10674 10676 10679 10682 10683 10685 10693 10700 10707 10712 10720 10729 10734 10740 10747 10752 10758 10766 10774 10782 10789 10793 10798 10802 10808 10813 10814 10818 10825 10830 10837 10843 10842 10843 10849 10855 10857 10857 10864 10875 10880 10884 10885 10883 10882 10884 10888 10892 10895 10896 10895 10894 10893 10897 10901 10902 10903 10906 10911 10915 10917 10919 10920 10920 10921 10922 10923 10926 10927 10928 10928 10926 10923 10922 10923 10925
10623 10624 10628 10633 10636 10638 10639 10639 10643 10648 10652 10658 10663 10664 10668 10671 10671 10675 10683 10690 10696 10701 10708 10716 10721 10729 10738 10742 10745 10754 10764 10772 10778 10782 10785 10790 10797 10803 10806 10814 10823 10828 10830 10832 10832 10834 10840 10846 10850 10852 10857 10865 10871 10873 10874 10875 10877 10878 10879 10881 10884 10886 10886 10885 10887 10892 10894 10894 10896 10899 10903 10908 10911 10912 10913 10914 10915 10916 10917 10919 10922 10923 10923 10920 10916 10915 10916 10916
10610 10612 10615 10620 10625 10629 10629 10628 10632 10637 10641 10646 10651 10653 10657 10660 10661 10666 10672 10676 10681 10687 10693 10702 10709 10716 10723 10727 10732 10741 10751 10760 10765 10768 10772 10782 10790 10796 10803 10811 10815 10818 10821 10821 10822 10827 10833 10839 10844 10847 10850 10855 10860 10863 10867 10870 10871 10873 10875 10875 10875 10876 10877 10879 10882 10885 10885 10886 10889 10891 10896 10902 10905 10906 10907 10907 10906 10908 10911 10915 10918 10918 10916 10913 10911 10908 10906 10906
10597 10600 10603 10607 10613 10617 10618 10616 10620 10626 10630 10634 10639 10642 10646 10651 10653 10655 10659 10663 10668 10674 10681 10690 10696 10699 10706 10713 10718 10726 10737 10746 10752 10755 10763 10776 10786 10791 10798 10805 10807 10810 10814 10814 10816 10821 10826 10832 10838 10842 10843 10844 10848 10855 10861 10863 10864 10867 10870 10870 10868 10869 10872 10874 10875 10877 10877 10878 10879 10882 10888 10896 10899 10900 10900 10899 10899 10902 10907 10911 10912 10910 10908 10907 10905 10902 10899 10898
10584 10587 10590 10594 10599 10603 10605 10605 10608 10615 10618 10622 10629 10635 10640 10644 10645 10646 10652 10657 10661 10666 10674 10681 10686 10691 10699 10706 10710 10714 10722 10732 10739 10745 10756 10770 10779 10784 10790 10797 10800 10803 10807 10808 10808 10812 10818 10826 10832 10834 10834 10835 10839 10847 10852 10855 10857 10859 10862 10862 10863 10866 10868 10868 10868 10867 10867 10869 10872 10874 10881 10889 10892 10892 10892 10892 10893 10897 10902 10905 10905 10904 10903 10899 10896 10895 10895 10895
10569 10572 10576 10581 10584 10587 10592 10594 10597 10603 10607 10612 10621 10627 10630 10633 10635 10639 10647 10653 10656 10661 10670 10675 10681 10689 10695 10698 10702 10704 10710 10720 10729 10739 10751 10762 10771 10777 10782 10788 10794 10797 10801 10801 10801 10805 10813 10820 10823 10825 10826 10828 10832 10839 10844 10848 10850 10852 10854 10855 10857 10860 10861 10860 10859 10859 10859 10863 10867 10870 10875 10882 10882 10881 10882 10884 10887 10892 10895 10897 10897 10897 10896 10892 10889 10888 10889 10891
10553 10557 10561 10566 10570 10573 10577 10581 10585 10591 10597 10603 10611 10615 10617 10621 10625 10630 10636 10642 10647 10655 10665 10672 10676 10682 10686 10687 10690 10694 10701 10713 10723 10734 10746 10754 10762 10770 10775 10780 10786 10790 10793 10794 10794 10801 10809 10811 10813 10816 10818 10821 10825 10830 10836 10840 10842 10844 10846 10848 10849 10850 10851 10851 10851 10853 10856 10859 10862 10865 10869 10873 10872 10871 10874 10877 10879 10883 10885 10887 10888 10889 10888 10885 10882 10879 10880 10884